Voltar ao catálogo

METEOR 2-1

AtivoMeteoPO
NORAD 8026·PAYLOAD·🇷🇺 Russia

Lançado Jul 11, 1975 de Plesetsk Cosmodrome

Loading…

Próximas Passagens (próximas 24 horas)

TLE

AtualizadoSource: Space-Track

Época: Sep 14, 2026, 13:22 UTC

1 08026U 75064A   26257.55696465  .00000076  00000-0  35271-4 0  9991
2 08026  81.2779 296.5127 0021478 329.7699  30.2231 14.10825950631940

Acompanhe METEOR 2-1 em tempo real com AllMySat

Download on the App Store